Satellite: DTUSAT-2 Catalog number: 40030 Epoch time: 14345.27779623 Element set: 500 Inclination: 097.9671 deg RA of node: 240.0817 deg Eccentricity: 0.0013970 Arg of perigee: 073.4415 deg Mean anomaly: 286.8317 deg Mean motion: 14.85704174 rev/day Decay rate: 3.521e-05 rev/day^2 Epoch rev: 2587 Checksum: 297
Satellite: ANTELSAT Catalog number: 40034 Epoch time: 14345.27038224 Element set: 516 Inclination: 097.9625 deg RA of node: 236.3012 deg Eccentricity: 0.0061577 Arg of perigee: 002.1799 deg Mean anomaly: 357.9626 deg Mean motion: 14.71871341 rev/day Decay rate: 3.177e-05 rev/day^2 Epoch rev: 2564 Checksum: 295
/EX SB KEPS @ AMSAT $ORB14345.W Orbital Elements 14345.WEATHER
HR AMSAT ORBITAL ELEMENTS FOR WEATHER SATELLITES FROM WA5QGD FORT WORTH,TX December 11, 2014 BID: ORB14345.W TO ALL RADIO AMATEURS BT
Satellite: MET-2/21 Catalog number: 22782 Epoch time: 14344.59197647 Element set: 245 Inclination: 082.5490 deg RA of node: 033.3331 deg Eccentricity: 0.0023665 Arg of perigee: 129.5105 deg Mean anomaly: 024.2079 deg Mean motion: 13.83753910 rev/day Decay rate: 1.9e-07 rev/day^2 Epoch rev: 7451 Checksum: 292
Satellite: OKEAN-4 Catalog number: 23317 Epoch time: 14344.58744213 Element set: 730 Inclination: 082.5391 deg RA of node: 262.4874 deg Eccentricity: 0.0018905 Arg of perigee: 231.9311 deg Mean anomaly: 113.8252 deg Mean motion: 14.86075721 rev/day Decay rate: 1.318e-05 rev/day^2 Epoch rev: 8929 Checksum: 297
Satellite: NOAA-14 Catalog number: 23455 Epoch time: 14345.55304123 Element set: 15 Inclination: 098.7677 deg RA of node: 065.7512 deg Eccentricity: 0.0008597 Arg of perigee: 251.0636 deg Mean anomaly: 223.6074 deg Mean motion: 14.14008564 rev/day Decay rate: -3.7e-07 rev/day^2 Epoch rev: 2901 Checksum: 283
Satellite: NOAA-15 Catalog number: 25338 Epoch time: 14345.56887139 Element set: 451 Inclination: 098.7640 deg RA of node: 339.1915 deg Eccentricity: 0.0010422 Arg of perigee: 359.3496 deg Mean anomaly: 107.2359 deg Mean motion: 14.25524476 rev/day Decay rate: 2.33e-06 rev/day^2 Epoch rev: 86211 Checksum: 317
Satellite: RESURS Catalog number: 25394 Epoch time: 14344.11611645 Element set: 827 Inclination: 098.4394 deg RA of node: 301.2991 deg Eccentricity: 0.0002541 Arg of perigee: 104.0318 deg Mean anomaly: 311.6651 deg Mean motion: 14.24423590 rev/day Decay rate: 5.4e-07 rev/day^2 Epoch rev: 85336 Checksum: 273
Satellite: FENGYUN1 Catalog number: 25730 Epoch time: 14344.54744002 Element set: 315 Inclination: 098.9291 deg RA of node: 304.7310 deg Eccentricity: 0.0021815 Arg of perigee: 334.1528 deg Mean anomaly: 089.5059 deg Mean motion: 14.12622512 rev/day Decay rate: 2.572e-05 rev/day^2 Epoch rev: 80241 Checksum: 269
Satellite: OKEAN-0 Catalog number: 25860 Epoch time: 14344.09488767 Element set: 437 Inclination: 098.0687 deg RA of node: 307.1850 deg Eccentricity: 0.0001348 Arg of perigee: 123.4525 deg Mean anomaly: 296.4729 deg Mean motion: 14.75636571 rev/day Decay rate: 7.76e-06 rev/day^2 Epoch rev: 82809 Checksum: 341
Satellite: NOAA-16 Catalog number: 26536 Epoch time: 14345.52801020 Element set: 951 Inclination: 098.9688 deg RA of node: 046.4599 deg Eccentricity: 0.0010990 Arg of perigee: 048.2706 deg Mean anomaly: 311.9404 deg Mean motion: 14.13061493 rev/day Decay rate: -1.6e-07 rev/day^2 Epoch rev: 73315 Checksum: 302
Satellite: NOAA-17 Catalog number: 27453 Epoch time: 14345.51481861 Element set: 841 Inclination: 098.3250 deg RA of node: 335.9835 deg Eccentricity: 0.0011876 Arg of perigee: 019.8888 deg Mean anomaly: 340.2753 deg Mean motion: 14.24828464 rev/day Decay rate: 1.36e-06 rev/day^2 Epoch rev: 64793 Checksum: 337
Satellite: NOAA-18 Catalog number: 28654 Epoch time: 14345.54500231 Element set: 364 Inclination: 099.1683 deg RA of node: 328.7870 deg Eccentricity: 0.0015162 Arg of perigee: 125.0150 deg Mean anomaly: 022.2839 deg Mean motion: 14.12112901 rev/day Decay rate: 2.16e-06 rev/day^2 Epoch rev: 49259 Checksum: 280
Satellite: NOAA-19 Catalog number: 33591 Epoch time: 14345.53761447 Element set: 494 Inclination: 098.9669 deg RA of node: 290.2196 deg Eccentricity: 0.0013663 Arg of perigee: 343.3505 deg Mean anomaly: 145.1081 deg Mean motion: 14.11827499 rev/day Decay rate: 2.25e-06 rev/day^2 Epoch rev: 30101 Checksum: 310
/EX SB KEPS @ AMSAT $ORB14345.M Orbital Elements 14345.MISC
HR AMSAT ORBITAL ELEMENTS FOR MANNED AND MISCELLANEOUS SATELLITES FROM WA5QGD FORT WORTH,TX December 11, 2014 BID: ORB14345.M TO ALL RADIO AMATEURS BT
Satellite: HUBBLE Catalog number: 20580 Epoch time: 14345.22963183 Element set: 175 Inclination: 028.4716 deg RA of node: 312.6592 deg Eccentricity: 0.0003065 Arg of perigee: 022.7681 deg Mean anomaly: 097.9114 deg Mean motion: 15.06378507 rev/day Decay rate: 2.962e-05 rev/day^2 Epoch rev: 15143 Checksum: 289
Satellite: ISS Catalog number: 25544 Epoch time: 14345.57318292 Element set: 545 Inclination: 051.6455 deg RA of node: 300.0000 deg Eccentricity: 0.0007378 Arg of perigee: 121.0035 deg Mean anomaly: 239.2202 deg Mean motion: 15.52040422 rev/day Decay rate: 1.6496e-04 rev/day^2 Epoch rev: 91885 Checksum: 263
Satellite: CO-58 Catalog number: 28895 Epoch time: 14344.09697358 Element set: 941 Inclination: 097.8223 deg RA of node: 176.7689 deg Eccentricity: 0.0017571 Arg of perigee: 171.1364 deg Mean anomaly: 189.0152 deg Mean motion: 14.62298462 rev/day Decay rate: 8.92e-06 rev/day^2 Epoch rev: 48595 Checksum: 371
Satellite: FALCON Catalog number: 30776 Epoch time: 14344.48183227 Element set: 23 Inclination: 035.4286 deg RA of node: 100.1038 deg Eccentricity: 0.0002268 Arg of perigee: 062.0979 deg Mean anomaly: 342.0516 deg Mean motion: 15.19678457 rev/day Decay rate: 1.0889e-04 rev/day^2 Epoch rev: 42752 Checksum: 298
Satellite: MAST Catalog number: 31126 Epoch time: 14344.48868819 Element set: 223 Inclination: 097.9367 deg RA of node: 316.4229 deg Eccentricity: 0.0092178 Arg of perigee: 163.6657 deg Mean anomaly: 317.5344 deg Mean motion: 14.55644706 rev/day Decay rate: 6.05e-06 rev/day^2 Epoch rev: 40603 Checksum: 319
Satellite: CAPE1 Catalog number: 31130 Epoch time: 14343.96128953 Element set: 228 Inclination: 097.9583 deg RA of node: 312.8108 deg Eccentricity: 0.0098256 Arg of perigee: 184.2229 deg Mean anomaly: 175.8151 deg Mean motion: 14.54944916 rev/day Decay rate: 7.34e-06 rev/day^2 Epoch rev: 40536 Checksum: 317
Satellite: COMPASS Catalog number: 32787 Epoch time: 14345.17647446 Element set: 122 Inclination: 097.6787 deg RA of node: 033.5321 deg Eccentricity: 0.0012516 Arg of perigee: 320.6280 deg Mean anomaly: 039.4026 deg Mean motion: 14.89195656 rev/day Decay rate: 2.764e-05 rev/day^2 Epoch rev: 35851 Checksum: 312
Satellite: AAUSAT2 Catalog number: 32788 Epoch time: 14345.09013776 Element set: 109 Inclination: 097.6802 deg RA of node: 034.6646 deg Eccentricity: 0.0011803 Arg of perigee: 319.0299 deg Mean anomaly: 041.0031 deg Mean motion: 14.90048868 rev/day Decay rate: 4.435e-05 rev/day^2 Epoch rev: 35857 Checksum: 306
Satellite: DO-64 Catalog number: 32789 Epoch time: 14345.24195384 Element set: 154 Inclination: 097.6992 deg RA of node: 043.1690 deg Eccentricity: 0.0010238 Arg of perigee: 296.3246 deg Mean anomaly: 104.2652 deg Mean motion: 14.96221617 rev/day Decay rate: 8.078e-05 rev/day^2 Epoch rev: 35894 Checksum: 333
Satellite: CO-66 Catalog number: 32791 Epoch time: 14345.10245497 Element set: 105 Inclination: 097.6782 deg RA of node: 031.8287 deg Eccentricity: 0.0013274 Arg of perigee: 325.9897 deg Mean anomaly: 034.0468 deg Mean motion: 14.87586273 rev/day Decay rate: 2.002e-05 rev/day^2 Epoch rev: 35834 Checksum: 329
Satellite: RS-30 Catalog number: 32953 Epoch time: 14345.30093284 Element set: 545 Inclination: 082.5023 deg RA of node: 091.0871 deg Eccentricity: 0.0019578 Arg of perigee: 130.5945 deg Mean anomaly: 229.6842 deg Mean motion: 12.43053515 rev/day Decay rate: 1.0e-07 rev/day^2 Epoch rev: 29726 Checksum: 288
Satellite: METEOR-M Catalog number: 35865 Epoch time: 14345.26782080 Element set: 155 Inclination: 098.5274 deg RA of node: 027.1005 deg Eccentricity: 0.0001968 Arg of perigee: 318.8786 deg Mean anomaly: 041.2234 deg Mean motion: 14.21964542 rev/day Decay rate: 2.23e-06 rev/day^2 Epoch rev: 27150 Checksum: 289
Satellite: RS-38 Catalog number: 35869 Epoch time: 14345.26717701 Element set: 59 Inclination: 098.5202 deg RA of node: 026.8204 deg Eccentricity: 0.0003915 Arg of perigee: 310.2187 deg Mean anomaly: 049.8646 deg Mean motion: 14.22252910 rev/day Decay rate: 1.54e-06 rev/day^2 Epoch rev: 27154 Checksum: 296
Satellite: JUGNU Catalog number: 37839 Epoch time: 14344.94427734 Element set: 750 Inclination: 019.9608 deg RA of node: 263.6147 deg Eccentricity: 0.0019046 Arg of perigee: 131.8055 deg Mean anomaly: 301.2429 deg Mean motion: 14.12387927 rev/day Decay rate: 4.34e-06 rev/day^2 Epoch rev: 16357 Checksum: 310
Satellite: SRMSAT Catalog number: 37841 Epoch time: 14344.89767447 Element set: 754 Inclination: 019.9720 deg RA of node: 286.7760 deg Eccentricity: 0.0012057 Arg of perigee: 064.5651 deg Mean anomaly: 333.2371 deg Mean motion: 14.10414636 rev/day Decay rate: 4.15e-06 rev/day^2 Epoch rev: 16333 Checksum: 300
Satellite: RAX-2 Catalog number: 37853 Epoch time: 14344.35051506 Element set: 984 Inclination: 101.7040 deg RA of node: 098.2845 deg Eccentricity: 0.0207804 Arg of perigee: 266.2165 deg Mean anomaly: 167.2708 deg Mean motion: 14.92218779 rev/day Decay rate: 1.0045e-04 rev/day^2 Epoch rev: 16890 Checksum: 311
Satellite: AUBIESAT Catalog number: 37854 Epoch time: 14345.30127091 Element set: 982 Inclination: 101.7088 deg RA of node: 102.2313 deg Eccentricity: 0.0204827 Arg of perigee: 259.6090 deg Mean anomaly: 153.2425 deg Mean motion: 14.93886515 rev/day Decay rate: 1.1055e-04 rev/day^2 Epoch rev: 16912 Checksum: 287
